RH
12 21 41 42 34 21 22 24 30 21 21 20 21 22 54 68 40 49 46 47 32 9 10 11 11 18 13 19 36 33 18 18 23 30 34 38 19 21 22 23 25 23 26 27
9 10 17 25 35 31 35 31 29 32 18 23 22 17 55 77 13 14 14 13 8 9 12 21 27 14 14 25 34 26 23 26 25 29 23 22 18 21 22 23 24 25 26 27
9 8 10 16 28 41 50 48 38 26 23 23 21 21 30 50 30 7 8 8 8 13 14 32 19 17 20 30 39 40 36 28 23 19 16 19 18 21 23 22 23 25 26 26
16 10 10 9 12 20 36 53 41 34 26 24 28 24 18 18 25 9 9 9 10 11 11 17 17 16 22 38 57 72 36 26 16 13 14 19 19 19 22 23 24 25 26 26
28 15 13 12 9 10 15 27 35 34 37 23 36 29 22 19 15 20 9 11 10 11 13 16 16 18 27 36 66 60 46 20 13 15 13 16 18 19 19 23 24 24 24 24
31 26 28 19 11 10 8 12 19 27 45 41 39 37 30 23 19 34 11 12 12 13 15 16 22 24 26 33 57 56 33 24 15 16 14 14 15 16 16 18 24 25 23 22
31 27 29 16 18 21 11 9 9 12 23 53 44 39 38 24 24 19 16 12 14 16 18 19 22 22 28 30 31 23 18 19 23 22 18 14 14 15 16 17 19 24 24 22
28 26 29 30 30 22 9 10 9 9 13 41 48 44 40 35 24 21 19 14 12 16 20 23 22 25 24 22 21 21 22 27 30 26 17 17 16 16 16 16 18 20 21 23
27 24 27 28 28 21 14 13 15 10 9 11 29 56 51 42 36 28 25 17 13 13 18 21 24 23 22 21 20 21 24 26 28 25 25 22 19 19 18 16 17 19 20 21
23 26 26 28 25 22 20 19 15 18 16 13 10 24 50 52 43 38 29 29 20 15 14 18 23 24 24 24 29 33 34 35 40 39 37 30 28 25 22 19 16 18 20 21
26 25 32 27 22 27 28 27 19 18 18 28 19 17 13 34 55 46 39 32 31 26 22 18 17 22 27 29 34 41 46 49 46 43 37 36 32 36 31 22 17 17 18 20
26 28 31 27 25 22 22 22 16 14 24 24 19 24 18 13 18 51 50 41 33 31 28 20 24 21 20 27 33 35 43 46 46 42 40 35 30 34 41 26 19 17 18 20
25 23 29 26 23 20 18 19 19 19 21 24 29 65 38 25 17 13 38 49 45 41 35 31 26 24 24 26 27 28 29 28 27 28 30 30 37 38 30 22 19 19 20 22
24 22 26 24 26 21 17 18 17 17 16 21 26 63 65 46 33 18 12 23 46 47 45 38 34 34 34 32 29 28 28 27 28 26 23 34 32 21 21 20 22 24 25 24
22 21 21 22 25 21 17 16 17 15 16 16 33 44 57 36 29 20 20 18 16 22 29 42 47 43 40 35 34 33 34 34 31 36 43 37 28 25 24 26 28 29 28 27
20 20 19 20 18 15 11 13 17 16 14 14 21 22 36 40 23 24 27 28 28 26 19 19 24 33 44 46 44 38 33 32 31 38 36 36 36 36 35 33 34 33 32 33
16 16 16 16 17 14 10 11 15 18 17 14 18 22 30 42 25 26 29 29 29 30 28 27 22 18 22 38 47 47 49 42 36 32 35 32 33 34 34 34 34 33 33 33
15 14 13 13 14 14 11 15 12 13 15 12 12 20 22 23 29 20 22 25 27 29 30 31 31 32 31 26 22 30 42 47 50 48 44 41 38 36 36 34 32 33 33 34
12 13 13 11 12 12 11 12 13 14 15 16 11 12 16 20 24 22 23 20 22 27 29 31 31 29 30 31 29 28 21 17 24 42 50 48 46 42 43 42 42 40 39 38
16 12 10 10 9 10 13 12 12 16 14 16 14 14 17 15 15 21 21 21 21 21 20 21 30 28 29 37 34 25 26 26 17 14 18 34 42 41 40 40 42 43 43 44
12 12 10 10 8 9 10 13 11 10 14 20 12 15 16 14 14 21 27 21 22 19 18 17 22 29 31 31 31 32 27 27 23 16 13 11 12 15 18 20 23 22 28 27
9 9 9 12 8 7 13 16 16 11 16 21 16 17 13 15 15 17 26 26 21 19 19 16 16 20 27 30 36 38 33 27 21 17 15 14 13 12 11 11 10 10 9 8
8 8 7 8 8 8 17 18 16 14 17 26 28 20 14 14 17 20 21 22 21 22 20 16 16 21 26 27 33 37 36 34 24 18 15 14 15 18 17 20 14 11 11 14
14 10 7 7 7 9 10 14 16 16 16 15 18 22 15 15 16 22 23 25 27 25 24 22 23 28 33 34 33 35 40 38 35 22 18 16 20 24 22 18 11 40 62 88
12 16 16 12 10 8 8 12 15 16 17 16 17 19 23 17 19 25 26 30 32 29 30 38 38 45 46 44 40 40 39 43 42 36 26 19 29 32 24 16 38 73 96 99
5 7 11 18 21 20 13 12 16 15 20 30 27 19 18 26 28 28 26 26 26 26 34 54 64 65 70 52 53 50 50 49 45 44 26 28 31 27 19 20 65 98 97 99
Wind_Speed
51 49 49 49 46 39 32 28 27 23 20 17 13 10 15 15 11 10 12 14 11 5 6 8 11 23 29 26 26 26 23 18 14 9 5 5 6 7 8 9 10 12 15 18
49 55 53 47 44 43 38 37 35 28 24 20 18 12 11 11 9 7 3 9 9 7 9 9 22 26 24 23 24 24 21 18 14 10 5 3 3 6 7 7 7 11 14 17
41 46 47 50 50 46 44 44 40 35 26 21 21 15 11 11 10 7 7 8 11 13 15 16 20 21 21 19 21 20 18 16 13 9 6 4 1 4 7 7 9 11 12 13
32 38 43 46 51 53 49 53 41 36 32 27 22 21 18 13 15 8 9 11 14 14 13 17 24 23 20 18 19 18 17 15 11 8 6 3 0 3 6 8 10 11 12 13
34 26 30 37 48 47 54 50 43 38 34 30 25 25 22 20 16 12 10 10 14 12 12 16 22 24 24 23 22 21 20 17 12 10 8 5 3 4 6 7 7 9 10 13
33 28 27 31 30 39 46 50 48 42 38 30 37 31 27 26 18 17 15 13 13 14 15 19 22 23 26 27 24 22 20 18 14 12 11 10 8 7 7 8 9 10 11 13
47 38 36 32 27 27 34 43 45 44 38 45 41 33 35 31 26 21 20 19 17 14 17 20 22 25 26 24 22 20 18 16 15 14 13 13 14 14 13 12 12 12 13 13
46 41 38 38 32 33 32 24 28 42 48 47 39 41 42 36 30 26 24 23 22 19 19 22 24 27 27 24 21 20 19 17 17 16 17 16 15 16 17 17 17 17 17 16
51 45 47 44 43 39 31 19 27 24 35 44 42 49 42 42 35 31 30 28 29 27 25 25 28 28 26 24 21 19 20 19 19 20 21 19 18 18 20 20 21 21 22 20
52 49 47 46 43 38 30 33 20 16 17 26 42 51 52 46 44 42 37 34 33 30 28 29 30 31 27 24 23 23 22 22 22 22 22 23 22 21 21 23 24 26 27 25
58 54 53 51 40 39 37 34 29 24 20 19 24 35 49 53 51 47 44 41 37 35 35 34 33 33 32 30 30 29 29 28 28 30 29 29 29 28 25 25 27 29 31 31
65 60 57 54 52 47 41 36 28 22 25 27 22 22 26 41 53 51 48 46 43 42 43 40 38 36 34 34 36 38 38 39 37 37 38 37 36 35 32 28 29 33 34 35
70 66 65 63 61 52 44 42 38 32 28 22 24 23 28 25 31 50 54 51 50 52 49 45 43 40 40 39 40 40 41 42 42 42 42 41 38 36 35 32 33 36 38 38
77 73 72 68 68 61 55 49 42 38 30 28 26 30 34 35 30 26 41 54 55 55 53 51 48 46 46 46 46 44 44 41 40 42 41 41 40 38 38 38 38 39 40 42
86 82 78 75 75 70 64 57 53 45 38 32 36 36 38 43 37 24 20 25 44 56 55 56 55 53 53 53 53 54 51 49 46 44 45 45 44 44 43 43 44 44 44 45
95 91 85 81 78 75 68 63 60 56 50 45 38 36 43 49 38 31 25 25 25 29 46 53 58 60 62 61 60 60 60 59 56 53 54 52 52 51 51 50 48 49 49 50
101 97 93 88 85 79 70 67 65 63 57 51 44 43 42 45 42 34 27 25 26 28 30 32 39 55 66 71 70 68 68 65 61 59 59 60 61 59 59 56 55 55 55 56
100 100 100 94 90 86 75 73 71 67 62 55 49 48 47 47 46 39 33 30 30 33 34 36 39 40 42 51 63 74 74 72 68 65 66 64 66 65 64 63 61 61 61 61
105 103 98 96 94 85 81 78 75 69 61 61 55 53 52 52 51 43 42 36 36 34 35 32 38 42 46 49 54 56 61 69 75 77 75 75 75 72 69 67 68 67 65 64
113 109 103 96 93 86 83 82 79 74 63 63 58 53 54 53 49 48 50 46 43 42 40 36 40 42 46 47 51 58 59 60 64 72 79 82 80 77 73 75 73 73 72 74
113 112 104 100 97 89 85 85 81 76 62 66 63 62 59 55 53 55 56 53 51 49 48 43 41 43 44 47 52 56 63 63 66 69 69 73 78 80 82 79 80 78 78 79
106 108 105 105 98 89 86 88 85 73 74 76 71 68 64 62 63 61 60 57 56 56 56 54 53 50 48 50 48 48 59 67 70 69 69 68 71 71 70 70 70 71 71 74
106 101 100 101 91 89 93 94 89 82 79 82 80 78 74 70 68 67 66 64 62 63 63 61 57 57 53 52 50 50 56 61 66 66 65 63 65 68 66 63 58 55 54 49
106 109 106 104 93 90 91 94 94 88 88 84 85 86 81 78 74 72 71 70 68 67 68 65 63 62 60 60 59 53 51 55 62 64 59 59 59 63 62 57 47 35 39 29
104 116 110 107 99 95 90 91 95 94 95 91 90 87 84 80 77 75 74 75 76 73 70 71 70 70 67 65 63 60 56 58 60 59 54 56 59 61 57 47 39 33 20 4
86 95 103 109 106 101 99 96 97 94 88 86 88 89 84 82 81 81 80 80 77 77 75 78 78 77 75 69 66 66 65 65 65 55 50 55 54 52 46 48 43 24 15 17
Wind_Direction
246 241 238 241 245 243 242 241 244 241 246 256 262 288 282 300 298 254 254 265 259 184 168 180 198 193 170 168 161 155 158 159 154 150 144 129 86 61 67 63 58 54 51 45
242 241 242 243 247 246 241 243 239 237 237 242 252 256 281 294 283 237 208 247 194 171 155 175 178 175 178 171 168 166 165 163 154 147 130 85 53 54 61 60 54 51 48 40
244 243 240 237 238 238 236 235 237 239 241 243 247 251 242 256 274 216 141 181 155 154 141 166 179 179 182 178 174 175 176 170 163 160 152 151 98 45 45 42 44 33 30 24
246 239 237 236 234 235 235 234 235 235 237 240 245 248 233 239 249 221 153 152 160 162 159 181 187 187 188 185 186 186 187 188 184 184 178 186 244 48 37 25 25 17 2 358
245 242 244 240 237 236 235 240 237 236 237 242 242 245 243 231 242 233 189 179 176 186 181 194 200 197 187 190 192 192 196 202 202 209 210 220 274 345 12 4 6 9 0 359
238 235 239 242 237 238 236 236 235 233 230 232 236 236 239 238 227 224 213 205 221 215 198 195 205 203 198 194 196 199 205 214 222 224 231 234 253 278 306 331 337 344 352 352
235 227 230 240 242 243 236 236 233 230 229 225 229 233 238 236 231 223 216 218 224 221 208 199 206 203 200 205 206 212 217 225 234 240 243 246 259 273 284 297 310 321 329 336
237 235 232 236 231 237 242 238 235 225 223 225 224 232 234 237 234 230 227 219 228 219 215 213 208 209 214 215 213 217 225 236 246 254 252 254 263 273 281 289 297 305 311 318
235 234 234 231 237 238 241 226 221 221 227 229 224 233 233 239 236 235 230 225 222 227 220 222 221 218 225 222 217 222 228 234 246 255 258 258 261 268 278 284 291 300 305 311
234 234 237 237 236 242 240 238 226 216 206 216 224 228 232 231 235 233 231 229 230 229 234 229 229 229 226 231 235 239 238 239 246 255 263 265 265 265 270 278 285 293 302 305
231 231 236 235 229 235 235 232 221 215 207 220 219 224 230 228 229 235 233 233 231 235 234 235 234 234 233 234 235 239 246 252 256 262 266 270 274 274 271 277 281 284 291 299
230 226 232 236 230 228 228 227 220 212 220 220 225 252 233 230 226 230 235 239 238 234 239 237 237 240 237 238 243 246 246 251 254 257 263 268 273 275 276 276 278 281 287 291
231 228 229 232 233 230 227 232 228 224 224 219 218 244 251 242 229 225 228 232 239 242 238 239 240 238 239 241 243 245 251 256 258 261 262 264 266 269 272 274 277 279 284 290
231 230 231 231 235 236 233 233 233 222 219 223 209 224 243 247 239 228 226 229 235 243 248 247 244 242 244 244 248 249 251 251 259 265 266 264 266 268 271 273 277 280 284 286
231 232 232 232 235 238 239 238 236 226 218 219 217 215 240 245 243 232 233 239 234 238 244 249 251 250 249 249 251 252 251 254 254 256 264 267 267 267 267 269 273 277 279 283
230 231 231 232 233 236 237 237 235 232 226 220 225 222 234 243 250 247 239 238 242 245 243 246 245 247 251 252 252 253 254 254 252 256 258 261 264 266 269 269 272 276 279 283
231 230 230 231 231 232 234 238 233 233 230 226 216 221 225 244 249 244 238 238 245 246 250 254 253 252 250 250 250 251 252 252 254 255 258 259 261 263 264 266 268 271 276 280
232 232 232 230 232 229 231 234 235 229 229 225 220 227 229 236 245 247 243 242 248 249 251 252 251 251 255 256 258 254 253 256 256 256 257 258 259 260 262 265 268 271 273 278
231 232 232 231 233 230 229 232 235 232 225 228 228 231 234 233 240 242 245 241 243 244 244 247 256 250 255 262 263 264 263 261 260 259 259 258 260 260 264 266 270 273 275 277
233 231 231 233 233 231 231 231 233 234 226 230 233 234 240 242 241 245 247 245 245 247 251 253 259 259 256 256 264 266 266 266 266 262 260 260 263 266 267 268 270 273 277 278
233 234 232 231 232 232 233 235 234 234 232 237 236 237 239 245 243 243 247 250 253 256 260 262 256 258 264 262 262 263 265 267 266 266 266 266 264 264 267 268 271 273 273 275
231 233 232 232 232 230 233 235 235 232 233 236 237 240 240 240 242 245 248 252 258 261 262 263 264 261 264 262 267 269 267 264 268 270 273 273 272 271 270 271 272 274 277 278
231 232 232 231 229 228 227 232 234 232 231 234 239 241 242 242 242 245 248 251 255 260 261 263 266 267 268 271 270 267 265 268 269 272 275 273 272 273 273 272 271 272 279 283
231 233 231 231 227 226 226 229 231 231 232 233 235 239 241 244 244 245 248 251 255 259 262 264 265 265 267 271 272 272 275 274 271 270 271 275 275 275 274 270 271 264 272 278
232 232 232 232 229 227 224 225 230 229 232 232 233 237 241 243 242 245 248 251 254 257 259 261 261 262 264 267 269 274 273 279 279 273 275 271 267 269 269 264 247 253 271 317
234 232 230 232 228 226 226 224 227 228 227 232 234 237 238 242 245 246 248 250 252 255 257 256 257 260 264 268 270 273 274 275 275 273 264 263 262 264 257 247 238 239 256 260